Change the Weather History Date:

Tuesday, February 18, 2014

  Actual Average Record
Temperature  
Mean Temperature 52 °F -  
Max Temperature 78 °F 56 °F 80 °F (1991)
Min Temperature 25 °F 32 °F 4 °F (1978)
Degree Days  
Heating Degree Days 14    
Growing Degree Days 2 (Base 50)    
Moisture  
Dew Point 31 °F    
Average Humidity 56    
Maximum Humidity 88    
Minimum Humidity 22    
Precipitation  
Precipitation 0.00 in - - ()
Sea Level Pressure  
Sea Level Pressure 29.93 in    
Wind  
Wind Speed 3 mph (SW)    
Max Wind Speed 16 mph    
Max Gust Speed 24 mph    
Visibility 10 miles    
Events      
Averages and records for this station are not official NWS values.
T = Trace of Precipitation, MM = Missing Value Source: NWS Daily Summary

Daily Weather History Graph

Daily Weather History Graph

Search for Another Location

Airport or City:

Trip Planner

Search our weather history database for the weather conditions in past years. The results will help you decide how hot, cold, wet, or windy it might be!

Date:

Astronomy

Feb. 18, 2014 Rise Set
Actual Time 7:15 AM CST 6:19 PM CST
Civil Twilight 6:50 AM CST 6:45 PM CST
Nautical Twilight 6:20 AM CST 7:14 PM CST
Astronomical Twilight 5:51 AM CST 7:44 PM CST
Moon 10:02 PM CST (2/18) 8:59 AM CST (2/18)
Length of Visible Light 11h 55m
Length of Day
11h 04m
Waning Gibbous, 87% of the Moon is Illuminated
Feb 18
Waning Gibbous
Feb 22
Last Quarter
Mar 1
New
Mar 8
First Quarter
Mar 16
Full

Hourly Weather History & Observations

Time (CST) Temp. Windchill Dew Point Humidity Pressure Visibility Wind Dir Wind Speed Gust Speed Precip Events Conditions
12:53 AM 33.1 °F - 25.0 °F 72% 30.09 in 10.0 mi Calm Calm - N/A   Clear
1:53 AM 28.0 °F - 24.1 °F 85% 30.08 in 10.0 mi Calm Calm - N/A   Clear
2:53 AM 26.1 °F - 23.0 °F 88% 30.06 in 10.0 mi Calm Calm - N/A   Clear
3:53 AM 26.1 °F - 21.9 °F 84% 30.03 in 10.0 mi Calm Calm - N/A   Clear
4:53 AM 25.0 °F 20.7 °F 21.9 °F 88% 30.02 in 10.0 mi South 3.5 mph - N/A   Clear
5:53 AM 28.0 °F - 23.0 °F 81% 30.02 in 10.0 mi Calm Calm - N/A   Clear
6:53 AM 25.0 °F - 21.9 °F 88% 30.02 in 10.0 mi Calm Calm - N/A   Clear
7:53 AM 30.0 °F - 26.1 °F 85% 30.03 in 10.0 mi Calm Calm - N/A   Clear
8:53 AM 39.9 °F 37.8 °F 30.0 °F 68% 30.03 in 10.0 mi SW 3.5 mph - N/A   Clear
9:53 AM 51.1 °F - 30.0 °F 44% 30.01 in 10.0 mi SSW 9.2 mph - N/A   Clear
10:53 AM 59.0 °F - 32.0 °F 36% 29.98 in 10.0 mi South 11.5 mph - N/A   Clear
11:53 AM 66.0 °F - 30.9 °F 27% 29.93 in 10.0 mi SSW 13.8 mph 23.0 mph N/A   Clear
12:53 PM 68.0 °F - 33.1 °F 27% 29.87 in 10.0 mi South 15.0 mph 24.2 mph N/A   Clear
1:53 PM 73.9 °F - 36.0 °F 25% 29.83 in 10.0 mi SSW 16.1 mph 23.0 mph N/A   Clear
2:53 PM 75.9 °F - 35.1 °F 23% 29.81 in 10.0 mi SW 10.4 mph 19.6 mph N/A   Clear
3:53 PM 78.1 °F - 36.0 °F 22% 29.80 in 10.0 mi SW 11.5 mph 18.4 mph N/A   Clear
4:53 PM 78.1 °F - 36.0 °F 22% 29.80 in 10.0 mi SW 6.9 mph - N/A   Clear
5:53 PM 75.0 °F - 36.0 °F 24% 29.80 in 10.0 mi Calm Calm - N/A   Clear
6:53 PM 59.0 °F - 36.0 °F 42% 29.84 in 10.0 mi Calm Calm - N/A   Clear
7:53 PM 54.0 °F - 37.0 °F 53% 29.87 in 10.0 mi NNW 3.5 mph - N/A   Clear
8:53 PM 46.9 °F - 36.0 °F 66% 29.87 in 10.0 mi Calm Calm - N/A   Clear
9:53 PM 43.0 °F 40.3 °F 35.1 °F 74% 29.88 in 10.0 mi NNW 4.6 mph - N/A   Clear
10:53 PM 51.1 °F - 36.0 °F 56% 29.88 in 10.0 mi Calm Calm - N/A   Clear
11:53 PM 53.1 °F - 37.0 °F 55% 29.88 in 10.0 mi NNE 9.2 mph - N/A   Clear